{"data":{"norad_id":62566,"intl_designator":"2025-006N","name":"STARLINK-11525 [DTC]","alt_names":[],"object_type":"PAYLOAD","status":"ACTIVE","operator":null,"country":"US","launch_date":"2025-01-10","launch_site_code":"AFETR","launch_vehicle":null,"mission":null,"orbit_class":"UNKNOWN","rcs_meters":null,"size_class":null,"mass_kg":null,"dimensions":null,"purposes":["comms"],"wikipedia_slug":null,"has_3d_model":false,"image_url":null,"decayed_at":null,"tle_current":{"epoch":"2026-09-21T09:01:04.330848Z","epoch_age_seconds":95707,"freshness":"FRESH","line1":"1 62566U 25006N   26264.37574457 -.00036523  00000+0 -28323-3 0  9991","line2":"2 62566  43.0014  40.8202 0000915 336.6047  23.4779 15.70770367 97370","mean_motion":15.70770367,"eccentricity":9.15e-5,"inclination_deg":43.0014,"raan_deg":40.8202,"arg_perigee_deg":336.6047,"mean_anomaly_deg":23.4779,"bstar":-0.00028323,"rev_number":9737,"period_min":91.674762285607,"perigee_km":356.07785602191,"apogee_km":357.31033011194,"semimajor_km":6734.8310930669,"source":"CELESTRAK","updated_at":"2026-09-22T09:00:49.628361Z"}}}